Date,TemperatureHighF,TemperatureAvgF,TemperatureLowF,DewpointHighF,DewpointAvgF,DewpointLowF,HumidityHigh,HumidityAvg,HumidityLow,PressureMaxIn,PressureMinIn,WindSpeedMaxMPH,WindSpeedAvgMPH,GustSpeedMaxMPH,PrecipitationSumIn
2014-1-1,48,36,28,30,22,14,72,55,36,30.36,30.08,10,2,18,0.00
2014-1-2,39,35,31,33,30,26,91,81,69,30.07,29.55,6,1,12,0.05
2014-1-3,31,22,15,29,8,-2,91,58,32,30.45,29.57,17,4,29,0.01
2014-1-4,34,24,15,15,8,1,63,50,37,30.49,30.21,15,4,22,0.01
2014-1-5,40,36,30,38,29,16,94,78,55,30.21,29.65,12,2,15,0.02
2014-1-6,46,36,9,45,24,-14,98,67,31,30.04,29.44,26,10,40,0.10
2014-1-7,23,12,3,-7,-13,-18,40,31,23,30.41,30.04,17,6,32,0.00
2014-1-8,29,21,10,14,-1,-8,58,38,25,30.57,30.41,13,2,14,0.00
2014-1-9,43,32,27,20,18,14,67,56,39,30.60,30.43,5,1,8,0.00
2014-1-10,38,35,32,36,31,21,95,85,64,30.49,30.08,2,0,6,0.58
2014-1-11,52,45,37,52,44,36,97,96,79,30.08,29.36,21,4,25,0.60
2014-1-12,56,47,42,43,31,27,75,54,37,30.06,29.49,17,6,29,0.01
2014-1-13,60,48,36,36,32,28,75,57,39,30.05,29.81,18,6,28,0.00
2014-1-14,52,48,42,47,44,36,95,88,53,29.86,29.66,14,5,25,0.32
2014-1-15,47,41,37,46,38,29,97,88,57,29.92,29.81,15,4,26,0.01
2014-1-16,47,38,33,31,22,16,80,54,31,29.97,29.83,12,3,17,0.00
2014-1-17,51,40,32,32,28,25,80,63,40,29.92,29.74,10,3,12,0.00
2014-1-18,39,31,23,31,14,4,79,51,30,29.95,29.72,20,8,31,0.00
2014-1-19,50,35,23,22,16,7,64,47,31,29.92,29.69,20,6,29,0.00
2014-1-20,59,45,38,26,23,20,58,44,25,29.82,29.59,15,7,25,0.00
2014-1-21,40,29,15,26,21,6,88,74,56,29.84,29.67,15,6,25,0.00
2014-1-22,22,14,7,5,-4,-7,65,44,30,30.06,29.84,17,8,29,0.00
2014-1-23,29,17,10,9,-1,-6,60,44,29,30.39,30.06,18,6,26,0.00
2014-1-24,26,16,8,-3,-6,-9,49,37,24,30.50,30.05,15,8,23,0.00
2014-1-25,32,25,20,20,4,-4,65,40,32,30.04,29.42,26,12,40,0.00
2014-1-26,34,28,19,15,4,0,68,38,27,29.87,29.60,20,4,28,0.00
2014-1-27,52,35,21,30,14,-2,58,43,22,30.14,29.59,20,10,31,0.00
2014-1-28,21,16,11,5,-8,-13,70,34,26,30.41,30.15,16,5,26,0.00
2014-1-29,28,18,10,6,-3,-10,75,43,23,30.32,30.17,14,4,23,0.00
2014-1-30,36,25,16,9,-1,-8,55,33,22,30.43,30.14,9,2,13,0.00
2014-1-31,55,36,23,15,10,8,57,37,16,30.18,30.06,8,2,12,0.00
2014-2-1,54,42,31,30,18,11,61,40,22,30.24,29.93,9,2,14,0.00
2014-2-2,63,50,40,34,28,24,58,44,29,29.99,29.86,10,3,15,0.00
2014-2-3,50,39,33,39,34,27,93,85,60,30.28,29.93,10,5,20,1.58
2014-2-4,42,34,29,28,23,20,86,64,46,30.44,30.08,6,2,10,0.03
2014-2-5,39,34,31,35,30,18,94,86,55,30.09,29.64,21,4,40,0.32
2014-2-6,40,32,27,18,15,12,60,49,34,30.29,30.04,16,5,25,0.00
2014-2-7,46,35,28,20,17,13,62,48,35,30.30,30.19,12,3,16,0.00
2014-2-8,36,31,26,18,13,7,64,46,34,30.29,30.14,7,1,12,0.00
2014-2-9,34,30,25,27,20,14,81,67,53,30.15,29.93,8,2,17,0.00
2014-2-10,34,29,23,25,12,6,78,49,35,30.29,29.98,14,6,23,0.00
2014-2-11,41,28,20,8,6,4,56,40,23,30.42,30.28,10,3,15,0.00
2014-2-12,30,24,18,21,9,3,86,54,33,30.48,30.06,8,3,18,0.00
2014-2-13,36,32,25,35,30,21,94,92,86,30.06,29.24,21,9,33,0.76
2014-2-14,61,43,34,30,24,18,85,50,27,29.66,29.30,23,5,38,0.15
2014-2-15,42,35,28,31,25,11,87,69,48,29.89,29.56,18,6,31,0.11
2014-2-16,39,31,25,22,13,7,69,47,36,30.15,29.89,14,5,22,0.00
2014-2-17,41,31,23,20,11,4,68,45,24,30.40,30.15,12,3,20,0.00
2014-2-18,58,41,28,29,24,14,89,56,24,30.19,29.96,17,5,30,0.05
2014-2-19,63,49,40,48,32,20,93,53,26,30.09,29.64,17,6,33,0.09
2014-2-20,57,47,39,35,27,17,69,48,23,30.19,29.88,12,2,21,0.00
2014-2-21,68,50,43,58,43,35,92,76,60,29.90,29.59,22,3,33,0.03
2014-2-22,65,50,36,41,25,18,88,42,17,30.06,29.91,20,6,26,0.00
2014-2-23,72,54,45,35,27,24,64,38,18,29.96,29.80,15,6,21,0.00
2014-2-24,50,41,32,34,13,3,71,35,16,30.09,29.85,20,8,35,0.00
2014-2-25,39,33,30,28,17,7,82,55,35,30.09,29.94,9,2,13,0.11
2014-2-26,40,31,25,28,15,2,88,53,27,29.96,29.80,13,4,23,0.02
2014-2-27,44,30,19,18,6,-2,60,39,20,30.08,29.62,22,8,33,0.00
2014-2-28,35,22,13,0,-7,-12,39,28,15,30.39,30.09,16,4,25,0.00
2014-3-1,46,32,20,21,11,1,66,43,27,30.33,30.11,13,2,16,0.00
2014-3-2,56,42,36,37,29,20,89,63,35,30.12,29.91,12,2,16,0.25
2014-3-3,37,23,15,34,17,4,89,77,54,30.31,29.93,15,6,23,0.19
2014-3-4,37,24,14,11,4,0,61,43,22,30.38,30.18,7,2,12,0.17
2014-3-5,53,36,22,17,13,10,73,43,21,30.33,30.13,9,2,20,0.11
2014-3-6,37,30,24,21,15,9,66,51,40,30.52,30.30,9,4,16,0.00
2014-3-7,47,37,30,30,25,21,72,63,49,30.30,29.87,10,5,18,0.00
2014-3-8,66,49,33,40,30,24,72,50,28,29.92,29.81,13,4,20,0.00
2014-3-9,55,48,42,34,22,12,61,38,19,30.06,29.83,17,5,25,0.00
2014-3-10,60,47,38,30,24,13,58,42,25,29.95,29.59,17,6,26,0.00
2014-3-11,73,59,51,36,32,26,45,36,24,29.66,29.56,9,3,14,0.00
2014-3-12,66,53,34,56,37,17,84,55,40,29.57,29.00,29,8,48,0.02
2014-3-13,37,29,20,17,1,-7,52,30,18,30.13,29.42,24,12,39,0.00
2014-3-14,58,41,26,19,11,1,49,30,18,30.18,29.82,22,8,33,0.00
2014-3-15,70,57,49,32,21,16,38,26,13,29.98,29.76,22,8,30,0.00
2014-3-16,51,42,30,29,22,15,88,48,26,30.12,29.98,9,3,18,0.00
2014-3-17,31,28,25,27,23,21,89,81,73,30.04,29.93,9,4,17,0.00
2014-3-18,44,36,29,26,22,17,74,57,45,30.18,30.01,8,3,15,0.30
2014-3-19,42,38,36,39,33,25,95,81,61,30.17,29.81,8,2,14,0.23
2014-3-20,61,50,40,45,30,16,97,55,19,29.95,29.76,21,8,31,0.01
2014-3-21,60,49,44,37,30,21,71,50,33,30.03,29.95,9,2,14,0.00
2014-3-22,72,55,42,36,31,18,78,46,13,29.96,29.77,14,6,22,0.00
2014-3-23,54,44,34,28,21,5,52,40,27,30.13,29.93,15,6,25,0.00
2014-3-24,44,34,23,14,5,2,48,30,18,30.27,30.09,16,5,28,0.00
2014-3-25,36,32,30,33,26,14,89,78,49,30.09,29.80,6,2,12,0.20
2014-3-26,38,31,27,28,13,4,88,50,26,30.27,29.84,25,9,38,0.04
2014-3-27,51,37,24,25,14,7,54,38,23,30.40,30.14,18,4,26,0.00
2014-3-28,66,54,44,52,42,24,89,64,45,30.14,29.94,24,11,36,0.04
2014-3-29,63,58,55,62,56,51,96,90,68,30.03,29.48,9,2,15,0.97
2014-3-30,55,44,36,54,41,34,96,91,69,29.74,29.43,23,10,40,0.96
2014-3-31,70,54,41,35,30,25,69,43,22,30.02,29.74,18,9,35,0.00
2014-4-1,68,55,44,39,31,26,63,41,26,30.12,29.91,10,2,17,0.00
2014-4-2,68,55,45,44,41,39,82,61,40,30.06,29.92,6,1,12,0.00
2014-4-3,67,60,54,48,44,34,77,57,37,30.05,29.88,7,2,14,0.00
2014-4-4,63,54,49,49,44,39,85,69,56,29.89,29.64,9,3,16,0.05
2014-4-5,60,52,45,48,34,24,92,55,27,30.09,29.64,20,7,35,0.00
2014-4-6,66,49,37,25,20,5,61,35,11,30.20,30.08,12,2,18,0.00
2014-4-7,52,46,41,51,40,24,96,80,40,30.11,29.58,9,2,16,0.42
2014-4-8,67,57,50,55,44,34,97,68,34,29.62,29.42,16,6,32,0.02
2014-4-9,70,57,48,36,30,22,57,38,20,29.99,29.61,16,5,24,0.00
2014-4-10,71,60,48,35,28,22,44,30,21,30.16,29.96,22,6,30,0.00
2014-4-11,81,68,60,52,39,33,70,37,19,30.00,29.83,18,8,29,0.00
2014-4-12,80,67,58,53,41,25,78,45,16,30.21,29.97,13,3,16,0.00
2014-4-13,84,70,55,54,51,47,86,55,28,30.09,29.91,20,7,32,0.00
2014-4-14,77,71,64,57,53,50,71,54,40,29.93,29.75,25,10,37,0.00
2014-4-15,69,56,36,65,52,25,95,86,63,29.98,29.48,21,8,33,1.45
2014-4-16,55,41,31,23,16,10,59,38,21,30.47,29.98,17,6,36,0.00
2014-4-17,57,46,36,32,28,20,77,52,34,30.59,30.47,8,2,16,0.00
2014-4-18,57,46,37,37,32,29,74,58,38,30.52,30.21,3,1,9,0.00
2014-4-19,73,57,44,40,33,19,80,47,17,30.25,30.15,10,2,14,0.00
2014-4-20,66,56,49,38,34,28,61,44,27,30.37,30.24,8,2,15,0.00
2014-4-21,74,57,40,38,31,23,62,40,18,30.24,29.82,7,1,12,0.00
2014-4-22,74,61,51,59,49,37,83,65,35,29.82,29.52,10,4,25,0.09
2014-4-23,61,54,48,49,34,29,68,46,34,29.93,29.58,18,9,35,0.01
2014-4-24,69,55,42,29,21,12,50,30,14,30.08,29.93,12,4,20,0.00
2014-4-25,70,57,50,52,37,19,93,52,23,29.96,29.65,13,2,22,0.42
2014-4-26,78,62,50,52,43,38,94,53,27,29.84,29.67,22,6,33,0.02
2014-4-27,74,60,48,44,32,29,52,36,21,30.03,29.82,12,4,20,0.00
2014-4-28,62,55,49,49,40,35,92,59,40,30.08,29.90,6,2,12,0.11
2014-4-29,50,48,47,48,46,44,95,94,89,30.14,29.99,8,3,16,0.87
2014-4-30,66,54,50,65,53,48,97,96,95,30.10,29.79,8,3,25,2.10
2014-5-1,79,70,59,64,54,40,97,60,40,29.80,29.63,16,4,26,0.08
2014-5-2,73,64,54,40,36,32,56,36,24,29.82,29.72,17,4,22,0.00
2014-5-3,76,64,57,43,39,32,59,41,20,29.83,29.67,14,2,23,0.00
2014-5-4,82,69,56,42,37,32,50,33,19,29.86,29.63,21,8,37,0.00
2014-5-5,68,57,47,49,34,26,92,46,24,29.99,29.82,12,4,18,0.23
2014-5-6,78,62,50,51,45,34,94,60,23,29.97,29.84,8,2,15,0.00
2014-5-7,65,59,54,54,47,36,86,65,38,30.20,29.97,7,2,13,0.15
2014-5-8,88,70,56,64,57,51,93,67,30,30.08,29.92,6,1,13,0.00
2014-5-9,80,69,61,63,60,57,89,75,55,30.06,29.88,7,1,12,0.00
2014-5-10,78,71,67,65,62,59,90,74,54,29.95,29.83,22,6,33,0.07
2014-5-11,86,72,61,61,50,41,86,52,22,30.08,29.89,9,2,16,0.00
2014-5-12,88,73,62,69,61,52,92,68,39,30.06,29.98,21,5,29,0.10
2014-5-13,95,78,67,68,64,59,98,68,34,30.11,29.97,8,2,16,0.01
2014-5-14,67,64,60,64,60,56,94,87,74,30.17,30.06,7,2,15,0.00
2014-5-15,82,72,66,67,65,63,96,80,56,30.06,29.83,12,3,21,0.45
2014-5-16,74,61,53,68,53,41,95,76,48,29.92,29.66,12,4,29,1.78
2014-5-17,73,62,52,53,39,34,69,43,27,30.08,29.76,13,3,20,0.00
2014-5-18,72,61,52,40,36,30,63,41,23,30.18,30.08,14,3,17,0.00
2014-5-19,77,65,52,38,34,-100,52,34,19,30.23,30.09,20,-2,20,0.01
2014-5-20,80,68,56,50,42,33,59,40,20,30.14,29.92,14,2,14,0.00
2014-5-21,81,70,61,65,58,50,91,68,41,29.93,29.81,8,1,9,0.11
2014-5-22,90,76,65,66,60,48,96,63,30,29.83,29.70,26,4,32,0.00
2014-5-23,83,70,59,49,46,41,66,44,26,29.96,29.81,25,5,25,0.00
2014-5-24,80,67,55,51,47,42,74,49,31,30.04,29.93,17,3,18,0.00
2014-5-25,87,72,58,52,47,41,76,45,21,30.10,30.01,13,2,14,0.00
2014-5-26,89,75,62,63,56,48,85,54,27,30.06,29.90,22,4,22,0.00
2014-5-27,91,77,68,67,63,56,95,65,34,29.91,29.77,31,5,31,0.73
2014-5-28,90,75,61,68,64,57,95,72,42,30.01,29.78,15,3,16,0.09
2014-5-29,61,57,56,58,55,53,96,93,87,30.13,30.00,13,1,14,0.30
2014-5-30,77,64,56,59,56,53,96,76,44,30.08,30.00,10,2,12,0.02
2014-5-31,84,70,60,56,47,38,79,48,22,30.19,30.03,18,3,18,0.00
2014-6-1,78,67,56,55,51,44,89,60,34,30.29,30.16,13,2,14,0.00
2014-6-2,81,69,56,60,53,46,79,58,40,30.20,29.98,21,6,21,0.00
2014-6-3,87,76,65,69,62,58,84,65,44,29.98,29.78,28,4,28,0.01
2014-6-4,92,78,68,68,60,48,92,59,26,29.80,29.61,18,2,18,0.37
2014-6-5,83,72,63,67,59,49,96,68,35,29.80,29.51,19,3,20,0.05
2014-6-6,84,72,60,54,48,42,70,46,28,29.92,29.78,18,2,18,0.00
2014-6-7,90,75,61,58,53,47,79,51,24,29.97,29.87,10,1,11,0.00
2014-6-8,84,74,64,66,60,55,87,63,42,29.91,29.76,20,3,20,0.14
2014-6-9,85,76,68,70,67,64,95,77,55,29.83,29.76,16,2,16,0.29
2014-6-10,89,78,74,73,70,66,92,77,48,29.87,29.78,10,1,10,0.07
2014-6-11,87,76,69,72,69,67,93,80,55,29.94,29.83,15,2,15,0.44
2014-6-12,79,72,68,72,69,67,96,90,75,29.92,29.80,14,2,14,0.09
2014-6-13,82,73,68,71,68,62,96,84,61,29.83,29.71,28,3,28,0.80
2014-6-14,80,71,65,63,54,48,84,57,35,30.08,29.82,20,4,20,0.00
2014-6-15,86,72,57,60,53,49,80,53,31,30.17,30.05,16,2,17,0.00
2014-6-16,92,80,66,66,64,60,90,61,37,30.12,30.01,14,1,15,0.00
2014-6-17,99,84,72,71,67,62,81,59,32,30.09,29.92,19,3,19,0.00
2014-6-18,97,87,78,73,68,64,71,55,39,29.99,29.91,17,4,20,0.00
2014-6-19,88,80,73,73,67,64,86,64,47,30.00,29.90,28,2,28,0.00
2014-6-20,89,77,68,67,55,44,89,52,22,30.03,29.90,14,2,14,0.00
2014-6-21,74,70,66,65,59,55,92,69,56,29.92,29.84,14,1,15,0.02
2014-6-22,85,73,66,65,61,53,95,69,38,29.98,29.85,9,0,9,0.08
2014-6-23,85,74,65,64,60,51,90,62,34,30.11,29.98,18,1,19,0.00
2014-6-24,86,76,66,70,64,59,86,68,50,30.12,29.97,22,2,22,0.00
2014-6-25,89,79,72,75,71,68,94,76,52,29.98,29.78,24,3,25,0.42
2014-6-26,90,80,71,74,65,58,96,64,35,29.95,29.81,21,2,21,0.00
2014-6-27,88,78,71,69,65,62,77,63,45,30.15,29.95,16,2,16,0.00
2014-6-28,86,76,66,63,58,50,79,56,35,30.25,30.15,15,2,15,0.00
2014-6-29,86,76,66,61,56,42,76,51,25,30.22,30.08,18,3,19,0.00
2014-6-30,87,78,69,68,64,56,82,63,49,30.09,29.90,17,3,18,0.00
2014-7-1,92,81,72,71,66,-100,86,65,46,29.94,29.79,20,-20,21,0.00
2014-7-2,96,84,75,74,71,68,89,65,43,29.91,29.80,22,5,23,0.11
2014-7-3,90,77,72,74,71,67,94,83,57,29.94,29.85,28,3,28,0.12
2014-7-4,84,74,68,71,57,45,92,60,30,30.14,29.91,28,5,28,0.02
2014-7-5,87,74,61,50,47,42,62,41,23,30.24,30.13,14,3,14,0.00
2014-7-6,88,76,63,62,56,50,80,52,31,30.13,29.91,22,6,23,0.00
2014-7-7,91,82,71,65,62,60,71,53,36,29.91,29.77,18,8,30,0.00
2014-7-8,94,82,70,70,65,61,94,60,37,29.86,29.68,40,8,44,0.63
2014-7-9,87,75,69,72,69,64,95,83,49,29.95,29.79,26,4,27,0.07
2014-7-10,86,75,68,71,68,59,96,80,51,30.09,29.93,20,2,22,0.19
2014-7-11,91,76,66,68,65,62,95,72,43,30.18,30.09,8,1,9,0.01
2014-7-12,89,79,70,71,68,64,94,71,48,30.19,30.07,20,4,20,0.00
2014-7-13,91,81,73,73,70,66,91,70,47,30.09,29.87,21,6,22,0.05
2014-7-14,92,79,74,74,72,70,92,79,53,29.92,29.76,38,2,38,0.07
2014-7-15,88,77,71,74,71,67,96,84,54,29.80,29.68,16,2,16,1.44
2014-7-16,84,74,68,70,58,51,96,60,35,29.91,29.75,20,3,20,0.00
2014-7-17,86,75,66,56,53,48,63,48,30,30.10,29.90,13,2,13,0.00
2014-7-18,88,76,66,57,53,46,68,48,27,30.21,30.09,8,1,10,0.00
2014-7-19,84,76,70,62,58,49,75,55,31,30.18,30.09,13,1,13,0.00
2014-7-20,83,75,70,69,65,61,86,73,50,30.10,30.03,8,1,8,0.34
2014-7-21,84,76,70,68,66,63,88,72,53,30.16,30.08,13,2,13,0.00
2014-7-22,88,78,71,70,68,66,94,74,51,30.16,30.03,16,3,18,0.00